Weather History for Burlington, WA

Change the Weather History Date:

Sunday, February 2, 2014

  Actual Average Record
Temperature  
Mean Temperature 36 °F -  
Max Temperature 41 °F 46 °F 41 °F (2014)
Min Temperature 30 °F 33 °F 30 °F (2014)
Degree Days  
Heating Degree Days 30    
Moisture  
Dew Point 35 °F    
Average Humidity 95    
Maximum Humidity 100    
Minimum Humidity 81    
Precipitation  
Precipitation 0.00 in - - ()
Sea Level Pressure  
Sea Level Pressure 30.04 in    
Wind  
Wind Speed 6 mph (NW)    
Max Wind Speed 10 mph    
Max Gust Speed -    
Visibility 10 miles    
Events      
Averages and records for this station are not official NWS values.
T = Trace of Precipitation, MM = Missing Value Source: NWS Daily Summary

Daily Weather History Graph

Daily Weather History Graph

Search for Another Location

Airport:

Trip Planner

Search our weather history database for the weather conditions in past years. The results will help you decide how hot, cold, wet, or windy it might be!

Date:

Astronomy

Feb. 02, 2014 Rise Set
Actual Time 7:37 AM PST 5:10 PM PST
Civil Twilight 7:03 AM PST 5:43 PM PST
Nautical Twilight 6:26 AM PST 6:21 PM PST
Astronomical Twilight 5:49 AM PST 6:58 PM PST
Moon 8:47 AM PST (2/2) 9:23 PM PST (2/2)
Length of Visible Light 10h 40m
Length of Day
9h 33m
Waxing Crescent, 12% of the Moon is Illuminated
Feb 2
Waxing Crescent
Feb 6
First Quarter
Feb 14
Full
Feb 22
Last Quarter
Mar 1
New

Hourly Weather History & Observations

Time (PST) Temp. Windchill Dew Point Humidity Pressure Visibility Wind Dir Wind Speed Gust Speed Precip Events Conditions
12:15 AM 37.4 °F 32.8 °F 37.4 °F 100% 30.11 in 10.0 mi NW 5.8 mph - 0.00 in   Overcast
12:35 AM 37.4 °F 34.9 °F 37.4 °F 100% 30.11 in 10.0 mi NNW 3.5 mph - 0.00 in   Overcast
12:55 AM 37.4 °F 32.8 °F 37.4 °F 100% 30.11 in 10.0 mi WNW 5.8 mph - 0.00 in   Overcast
1:15 AM 35.6 °F 32.8 °F 35.6 °F 100% 30.10 in 10.0 mi NNW 3.5 mph - 0.00 in   Overcast
1:35 AM 37.4 °F 32.8 °F 37.4 °F 100% 30.10 in 10.0 mi NW 5.8 mph - 0.00 in   Overcast
1:55 AM 37.4 °F 32.8 °F 37.4 °F 100% 30.10 in 10.0 mi WNW 5.8 mph - 0.00 in   Overcast
2:15 AM 37.4 °F 32.1 °F 37.4 °F 100% 30.10 in 10.0 mi NW 6.9 mph - 0.00 in   Overcast
2:35 AM 35.6 °F 32.8 °F 35.6 °F 100% 30.10 in 10.0 mi NNW 3.5 mph - 0.00 in   Overcast
2:55 AM 35.6 °F 31.7 °F 35.6 °F 100% 30.10 in 10.0 mi North 4.6 mph - 0.00 in   Overcast
3:15 AM 35.6 °F 32.8 °F 35.6 °F 100% 30.09 in 10.0 mi NW 3.5 mph - 0.00 in   Overcast
3:35 AM 35.6 °F 30.7 °F 35.6 °F 100% 30.09 in 10.0 mi NW 5.8 mph - 0.00 in   Overcast
3:55 AM 35.6 °F 29.9 °F 35.6 °F 100% 30.07 in 10.0 mi WNW 6.9 mph - 0.00 in   Overcast
4:15 AM 35.6 °F 29.9 °F 35.6 °F 100% 30.07 in 10.0 mi WNW 6.9 mph - 0.00 in   Overcast
4:35 AM 35.6 °F 29.9 °F 35.6 °F 100% 30.07 in 10.0 mi NW 6.9 mph - 0.00 in   Overcast
4:55 AM 35.6 °F 30.7 °F 35.6 °F 100% 30.07 in 10.0 mi NNW 5.8 mph - 0.00 in   Overcast
5:15 AM 35.6 °F 31.7 °F 35.6 °F 100% 30.06 in 10.0 mi NW 4.6 mph - 0.00 in   Overcast
5:35 AM 35.6 °F 30.7 °F 35.6 °F 100% 30.06 in 10.0 mi NW 5.8 mph - 0.00 in   Overcast
5:55 AM 35.6 °F 29.9 °F 35.6 °F 100% 30.06 in 10.0 mi NW 6.9 mph - 0.00 in   Overcast
6:15 AM 35.6 °F 29.9 °F 35.6 °F 100% 30.06 in 10.0 mi NW 6.9 mph - 0.00 in   Overcast
6:35 AM 35.6 °F 30.7 °F 35.6 °F 100% 30.05 in 10.0 mi NW 5.8 mph - 0.00 in   Overcast
6:55 AM 35.6 °F 29.9 °F 35.6 °F 100% 30.06 in 10.0 mi NW 6.9 mph - 0.00 in   Overcast
7:15 AM 35.6 °F 29.9 °F 35.6 °F 100% 30.06 in 10.0 mi NNW 6.9 mph - 0.00 in   Overcast
7:35 AM 35.6 °F 31.7 °F 35.6 °F 100% 30.06 in 10.0 mi NW 4.6 mph - 0.00 in   Overcast
7:55 AM 35.6 °F 30.7 °F 35.6 °F 100% 30.05 in 10.0 mi NNW 5.8 mph - 0.00 in   Overcast
8:15 AM 35.6 °F 31.7 °F 35.6 °F 100% 30.05 in 10.0 mi NNW 4.6 mph - 0.00 in   Overcast
8:35 AM 35.6 °F 30.7 °F 35.6 °F 100% 30.05 in 10.0 mi NNE 5.8 mph - 0.00 in   Overcast
8:55 AM 35.6 °F 30.7 °F 35.6 °F 100% 30.05 in 10.0 mi NW 5.8 mph - 0.00 in   Overcast
9:15 AM 35.6 °F 31.7 °F 35.6 °F 100% 30.05 in 10.0 mi NW 4.6 mph - 0.00 in   Overcast
9:35 AM 37.4 °F 33.8 °F 37.4 °F 100% 30.05 in 10.0 mi WNW 4.6 mph - 0.00 in   Overcast
9:55 AM 37.4 °F 33.8 °F 37.4 °F 100% 30.04 in 10.0 mi NW 4.6 mph - 0.00 in   Overcast
10:15 AM 37.4 °F 32.8 °F 37.4 °F 100% 30.04 in 10.0 mi WNW 5.8 mph - 0.00 in   Overcast
10:35 AM 39.2 °F 35.9 °F 39.2 °F 100% 30.04 in 10.0 mi WNW 4.6 mph - 0.00 in   Overcast
10:55 AM 39.2 °F 35.9 °F 39.2 °F 100% 30.04 in 10.0 mi NW 4.6 mph - 0.00 in   Overcast
11:15 AM 39.2 °F 35.9 °F 37.4 °F 93% 30.04 in 10.0 mi WNW 4.6 mph - 0.00 in   Overcast
11:35 AM 39.2 °F 35.0 °F 39.2 °F 100% 30.04 in 10.0 mi WNW 5.8 mph - 0.00 in   Overcast
11:55 AM 39.2 °F 35.9 °F 37.4 °F 93% 30.03 in 10.0 mi NNW 4.6 mph - 0.00 in   Overcast
12:15 PM 39.2 °F 37.0 °F 37.4 °F 93% 30.02 in 10.0 mi WNW 3.5 mph - 0.00 in   Overcast
12:35 PM 39.2 °F 35.0 °F 37.4 °F 93% 30.01 in 10.0 mi WNW 5.8 mph - 0.00 in   Overcast
12:55 PM 39.2 °F 33.6 °F 37.4 °F 93% 30.01 in 10.0 mi WNW 8.1 mph - 0.00 in   Overcast
1:15 PM 39.2 °F 33.6 °F 35.6 °F 87% 30.01 in 10.0 mi NW 8.1 mph - 0.00 in   Scattered Clouds
1:35 PM 41.0 °F 34.7 °F 35.6 °F 81% 30.01 in 10.0 mi NW 10.4 mph - 0.00 in   Mostly Cloudy
1:55 PM 39.2 °F 32.5 °F 35.6 °F 87% 30.00 in 10.0 mi WNW 10.4 mph - 0.00 in   Overcast
2:15 PM 39.2 °F 33.0 °F 33.8 °F 81% 30.00 in 10.0 mi NW 9.2 mph - 0.00 in   Overcast
2:35 PM 39.2 °F 34.2 °F 33.8 °F 81% 29.99 in 10.0 mi NW 6.9 mph - 0.00 in   Mostly Cloudy
2:55 PM 39.2 °F 35.9 °F 33.8 °F 81% 29.99 in 10.0 mi NW 4.6 mph - 0.00 in   Partly Cloudy
3:15 PM 39.2 °F 35.0 °F 33.8 °F 81% 29.99 in 10.0 mi WNW 5.8 mph - 0.00 in   Mostly Cloudy
3:35 PM 39.2 °F 33.0 °F 33.8 °F 81% 29.99 in 10.0 mi NW 9.2 mph - 0.00 in   Mostly Cloudy
3:55 PM 39.2 °F 35.0 °F 33.8 °F 81% 29.99 in 10.0 mi NW 5.8 mph - 0.00 in   Overcast
4:15 PM 39.2 °F 34.2 °F 33.8 °F 81% 29.99 in 10.0 mi NW 6.9 mph - 0.00 in   Overcast
4:35 PM 37.4 °F 32.1 °F 33.8 °F 87% 29.99 in 10.0 mi NW 6.9 mph - 0.00 in   Scattered Clouds
4:55 PM 35.6 °F 29.9 °F 33.8 °F 93% 29.99 in 10.0 mi NNW 6.9 mph - 0.00 in   Clear
5:15 PM 35.6 °F 30.7 °F 33.8 °F 93% 29.99 in 10.0 mi SSW 5.8 mph - 0.00 in   Clear
5:35 PM 33.8 °F 27.7 °F 32.0 °F 93% 29.99 in 10.0 mi NNW 6.9 mph - 0.00 in   Clear
5:55 PM 32.0 °F 27.5 °F 32.0 °F 100% 30.00 in 10.0 mi North 4.6 mph - 0.00 in   Clear
6:55 PM 32.0 °F 26.4 °F 32.0 °F 100% 29.99 in 10.0 mi North 5.8 mph - 0.00 in   Mostly Cloudy
7:35 PM 32.0 °F 28.7 °F 32.0 °F 100% 29.99 in 10.0 mi WNW 3.5 mph - 0.00 in   Clear
7:55 PM 30.2 °F - 30.2 °F 100% 29.99 in 10.0 mi Calm Calm - 0.00 in   Clear
8:15 PM 32.0 °F - 32.0 °F 100% 29.99 in 10.0 mi Calm Calm - 0.00 in   Clear
8:35 PM 30.2 °F 25.4 °F 30.2 °F 100% 29.99 in 10.0 mi NNE 4.6 mph - 0.00 in   Clear
8:55 PM 30.2 °F 24.3 °F 30.2 °F 100% 29.99 in 10.0 mi NW 5.8 mph - 0.00 in   Clear
9:15 PM 30.2 °F 25.4 °F 30.2 °F 100% 29.99 in 10.0 mi North 4.6 mph - 0.00 in   Clear
9:55 PM 30.2 °F 25.4 °F 28.4 °F 93% 30.00 in 10.0 mi NNW 4.6 mph - 0.00 in   Clear
10:35 PM 32.0 °F 26.4 °F 28.4 °F 87% 30.01 in 10.0 mi NE 5.8 mph - 0.00 in   Clear
10:55 PM 32.0 °F 25.6 °F 28.4 °F 87% 30.02 in 10.0 mi NE 6.9 mph - 0.00 in   Clear
11:15 PM 32.0 °F 26.4 °F 28.4 °F 87% 30.02 in 10.0 mi NE 5.8 mph - 0.00 in   Clear